sat.trackr.live / text

‹ back to catalog

INTELSAT 25 (IS-25)

NORAD 33153 · 2008-034A

PAYLOAD ACTIVE UNKNOWN

§ Identity

Operator
Country
ITSO
Launch date
2008-07-07
Launch site
FRGUI
Launch vehicle
Mass (kg)
RCS (m²)
12.69

Purposes: comms

External: N2YO · Heavens-Above · Gunter

§ Orbital elements

Epoch: 2026-05-25T02:28:52.767264Z

Period
1,454.06 min
Inclination
2.6510°
Eccentricity
0.0001472
Mean motion
0.99033070 rev/d
Perigee alt
36,131.2 km
Apogee alt
36,143.7 km
Semi-major
42,515.6 km
B*
0.0000e+0
RAAN
80.5796°
Arg perigee
9.2650°
Mean anomaly
54.8394°
Rev number
6,546

§ Raw data

INTELSAT 25 (IS-25)1 33153U 08034A   26145.10338851  .00000063  00000+0  00000+0 0  99942 33153   2.6510  80.5796 0001472   9.2650  54.8394  0.99033070 65467

JSON: /api/v1/satellites/33153 · /tle

For live sub-satellite position, see the globe view (requires WebGL).

§ Visibility from observer

Set your observer location to see the next 7 days of passes ≥ 10°. The values pass through the URL so the page stays shareable.

No JS? Fill the form by hand. The geolocation button needs JavaScript.